Home > Weather > Salzburg > Past weeks

Flag for Austria Weather for the Past 2 Weeks in Salzburg, Salzburg, Austria

Now
49 °F

Overcast.


Feels Like: 47 °F
Forecast: 46 / 58 °F
Wind: 5 mph from Southeast

Location: Salzburg-Flughafen

Current Time: May 2, 2016 at 11:55:41 PM

Latest Report: May 2, 2016 at 10:00 PM


Visibility: 6 mi

Pressure: 30.12 "Hg

Humidity: 90%

Dew Point: 46 °F

Location of SalzburgLocation

Historic Weather in Salzburg — Graph

°F

Salzburg Temperature Yesterday

Maximum temperature yesterday: 52 °F (at 11:00 AM)
Minimum temperature yesterday: 48 °F (at 11:00 PM)
Average temperature yesterday: 50 °F

High & Low Weather Summary for the Past Weeks

 TemperatureHumidityPressure
High67 °F (Apr 30, 4:00 PM)100% (Apr 19, 5:00 AM)30.38 "Hg (Apr 19, 5:00 AM)
Low30 °F (Apr 28, 5:00 AM)26% (Apr 30, 5:00 PM)29.63 "Hg (Apr 23, 8:00 PM)
Average47 °F72%29.99 "Hg
* Reported Apr 17 10:00 PM — May 2 10:00 PM, Salzburg, Weather by CustomWeather, © 2016

Note: Actual official high and low records may vary slightly from our data, if they occured in-between our weather recording intervals... More about our weather records

Advertising

Salzburg Weather History for the Previous 24 Hours

Scroll right to see more
 ConditionsComfort  
Time TempWeatherWind HumidityBarometerVisibility
10:00 PM
Mon, May 2
49 °FOvercast.5 mph90%30.12 "Hg6 mi
9:00 PM49 °FOvercast.5 mph90%30.11 "Hg6 mi
8:00 PM49 °FOvercast.3 mph86%30.10 "Hg6 mi
7:00 PM50 °FOvercast.5 mph85%30.10 "Hg6 mi
6:00 PM51 °FOvercast.3 mph85%30.11 "Hg7 mi
5:00 PM52 °FLow clouds.3 mph81%30.13 "Hg8 mi
4:00 PM51 °FOvercast.N/A83%30.14 "Hg11 mi
3:00 PM50 °FOvercast.N/A83%30.16 "Hg9 mi
2:00 PM50 °FLow clouds.N/A84%30.16 "Hg9 mi
1:00 PM49 °FLow clouds.N/A90%30.17 "Hg7 mi
12:00 PM48 °FLow clouds.5 mph91%30.18 "Hg6 mi
11:00 AM47 °FLow clouds.5 mph92%30.17 "Hg6 mi
10:00 AM47 °FLight rain. Low clouds.3 mph96%30.17 "Hg4 mi
9:00 AM47 °FLight rain. Low clouds.3 mph96%30.17 "Hg4 mi
8:00 AM47 °FLight rain. Low clouds.3 mph97%30.15 "Hg3 mi
7:00 AM47 °FLight rain. Low clouds.3 mph97%30.14 "Hg3 mi
4:00 AM47 °FLight rain. Overcast.N/A99%30.12 "Hg3 mi
3:00 AM47 °FLight rain. Low clouds.N/A97%30.12 "Hg5 mi
12:00 AM48 °FHeavy rain. Low clouds.N/A98%30.12 "Hg4 mi
11:00 PM
Sun, May 1
48 °FLight rain. Low clouds.N/A97%30.12 "Hg4 mi
Weather by CustomWeather, © 2016

See weather overviewHow to use our weather pages